Location: Oshawa
(43.9000°N, 78.8670°W)
Time: 21:52:09
(UTC-05:00)

Iridium 54 - Visible Passes

Search period start: 20 February 2017 00:00
Search period end: 02 March 2017 00:00
Orbit: 776 x 779 km, 86.4° (Epoch: 20 February)

Date Brightness Start Highest point End Pass type
(mag) Time Alt. Az. Time Alt. Az. Time Alt. Az.
20 Feb 6.3 04:18:25 10° N 04:22:10 46° NNE 04:22:10 46° NNE visible
20 Feb 7.2 06:00:52 10° NW 06:02:34 14° WNW 06:02:34 14° WNW visible
21 Feb 7.3 03:45:07 10° NNE 03:47:55 27° NE 03:47:55 27° NE visible
21 Feb 7.0 05:26:15 10° NNW 05:28:21 20° NW 05:28:21 20° NW visible
21 Feb 8.5 18:27:05 10° W 18:29:36 13° WNW 18:32:09 10° NW visible
22 Feb 8.0 03:12:12 10° NNE 03:13:54 17° NE 03:13:54 17° NE visible
22 Feb 7.0 04:52:13 10° NNW 04:54:20 23° NNW 04:54:20 23° NNW visible
23 Feb 7.2 04:18:31 10° N 04:20:28 23° N 04:20:28 23° N visible
24 Feb 7.6 03:45:04 10° N 03:46:41 20° NNE 03:46:41 20° NNE visible
24 Feb 7.6 05:26:54 10° NW 05:27:07 11° NW 05:27:07 11° NW visible
25 Feb 8.1 03:11:53 10° NNE 03:12:57 15° NNE 03:12:57 15° NNE visible
25 Feb 7.6 04:52:35 10° NNW 04:53:24 14° NNW 04:53:24 14° NNW visible
26 Feb 8.5 02:39:10 10° NNE 02:39:16 10° NNE 02:39:16 10° NNE visible
26 Feb 7.6 04:18:42 10° N 04:19:43 16° NNW 04:19:43 16° NNW visible
27 Feb 7.8 03:45:06 10° N 03:46:05 16° N 03:46:05 16° N visible
28 Feb 8.1 03:11:45 10° N 03:12:28 14° NNE 03:12:28 14° NNE visible
01 Mar 8.5 02:38:43 10° NNE 02:38:53 11° NNE 02:38:53 11° NNE visible
01 Mar 7.9 04:19:00 10° NNW 04:19:21 12° NNW 04:19:21 12° NNW visible
